STARLINK-4639 (53971 NORAD) Tracking and Keplerian Element Data

This shows tracking and keplerian element data for the satellite.

Feedback or suggestion? Click here.




ElementValue
Catalog53971
NameSTARLINK-4639
Epoch Orbit130
Epoch Day324.91667824
Epoch Year2022
RAAN232.5134
Inclination53.2146
Eccentricity0.0001911
Argument of Perigee49.1759
Mean Anonmoly285.3408
Mean Motion15.08840136
Decay Rate-0.00019065
L11 53971U 22125H 22324.91667824 -.00019065 00000+0 -11829-2 0 9998
L22 53971 53.2146 232.5134 0001911 49.1759 285.3408 15.08840136 1305



Live tracking and technical data element details for STARLINK-4639 (NORAD 53971). STARLINK-4639 can be tracked NOW for your location showing map with azimuth and elevation plus other details from your city location.







IsCatalogInMostPopularTable: catalog: 53971, numindb: 3
Update: records affected: 1



GetName: 53971 STARLINK-4639

Hit Count: updated at: Mon, 28 Nov 2022 21:20:35 GMT